Accueil
METAR-TAF:

METAR-TAF

Aéroports :

Prato Nevoso, Italie

Monte Malanotte

latitude: 44-15N, longitude: 007-48E, altitude: 1741 m

Observation

Le bulletin a été fait il y a 6 heures et 40 minutes, à 17:55 UTC
Vent 3 kt de direction variable
Température 0°C
Humidité 86%
Pression 1007 hPa
Visibilité 10 km ou plus
Ciel couvert à une hauteur de 4600 ft

METAR: LIMY 231755Z VRB03KT 9999 OVC046 M00/M02 Q1007 RMK OVC VAL FOSCHIA VIS MIN 9999

Heure: 01:35 (00:35 UTC)


TAF: absent

Observations et prévisions météorologiques de plus de 4000 aéroports (messages METAR et TAF).

Les stations disponibles sont représentées par des disques jaunes et rouges sur la carte.

Passer la souris dessus pour voir le nom de la station.

Cliquer dessus pour voir les observations et prévisions météorologiques.

Pour changer de carte: cliquez sur les boutons verts avec une croix noire pour zoomer, sur le bouton vert avec un tiret pour effectuer un zoom arrière, ou sur les flèches vertes pour les cartes adjacentes.


METAR-TAF: